Regional Weather Roundup
Issued by NWS

Home | Current Version | Previous Version | Graphics & Text | Print | Product List | Glossary On
Versions: 1 2 3 4 5 6 7 8 9 10 11 12 13 14 15 16 17 18 19 20 21 22 23 24 25 26 27 28 29 30 31 32 33 34 35 36 37 38 39 40 41 42 43 44 45 46 47 48 49 50
000
ASUS43 KLSX 021507
RWRMO

WEATHER SUMMARY FOR MISSOURI
NATIONAL WEATHER SERVICE SPRINGFIELD MO
1000 AM CDT THU JUL 02 2015

NOTE: "FAIR" INDICATES FEW OR NO CLOUDS BELOW 12,000 FEET WITH NO
       SIGNIFICANT WEATHER AND/OR OBSTRUCTIONS TO VISIBILITY.
       CURRENT SKY AND/OR WEATHER CONDITIONS ARE NOT AVAILABLE FOR
       CHILLICOTHE AND FARMINGTON.

MOZ001>031-035>038-043-044-053-054-021600-
...NORTHERN AND WESTERN MISSOURI...

CITY           SKY/WX    TMP DP  RH WIND       PRES   REMARKS
KANSAS CTY INT DRIZZLE   71  68  90 NE9       29.93R
KANSAS C DTWN  CLOUDY    73  69  87 NE9       29.91R
LEE`S SUMMIT   CLOUDY    71  68  90 E10       29.92S FOG
ST JOSEPH      CLOUDY    70  67  90 NE7       29.93S
CHILLICOTHE      N/A     70  65  84 NE8       29.96R
KIRKSVILLE     CLOUDY    66  58  75 E10       29.98R

$$
MOZ066>068-077>081-088>096-101>105-021600-
...SOUTHWEST MISSOURI...

CITY           SKY/WX    TMP DP  RH WIND       PRES   REMARKS
SPRINGFIELD    CLOUDY    71  68  90 S8        29.88R
JOPLIN         MOSUNNY   82  72  71 W5        29.86R

$$
MOZ032>034-039>042-045>050-055>058-069>072-021600-
...CENTRAL MISSOURI...

CITY           SKY/WX    TMP DP  RH WIND       PRES   REMARKS
COLUMBIA       CLOUDY    69  67  93 NE9       29.91R FOG
JEFFERSON CITY CLOUDY    71  68  90 NE8       29.89R
ROLLA          CLOUDY    72  68  87 SW5       29.89R
SEDALIA        CLOUDY    72  69  90 NE7       29.92R FOG
WHITEMAN AFB   DRIZZLE   71  70  97 NE9       29.90R FOG
WARRENSBURG    DRIZZLE   70  68  94 N8        29.90S
OSAGE BEACH    CLOUDY    72  66  83 E5        29.89F

$$
MOZ051-052-059>065-021600-
...EAST CENTRAL MISSOURI...

CITY           SKY/WX    TMP DP  RH WIND       PRES   REMARKS
ST LOUIS INTL  CLOUDY    67  59  75 NE9       29.91R
SPIRIT OF STL  CLOUDY    64  63  96 N5        29.90R FOG
ST CHARLES     CLOUDY    66  60  81 NE12      29.90R

$$
MOZ072>076-082>087-097>100-106>115-021600-
...SOUTH CENTRAL AND SOUTHEAST MISSOURI...

CITY           SKY/WX    TMP DP  RH WIND       PRES   REMARKS
CAPE GIRARDEAU PTSUNNY   80  71  74 W6        29.85R
FARMINGTON     CLOUDY    73  70  88 NW7       29.91S
WEST PLAINS    MOSUNNY   75  67  76 SW12      29.89F

$$



USA.gov is the U.S. government's official web portal to all federal, state and local government web resources and services.